This is the latest recevied weather packets stored in our database for station/object KN6CW-3. If no packets are shown the sender has not sent any weather packets the latest 10 day(s).
| Time | Temp. | Humidity | Pressure | Rain* | Wind** | Luminosity | Snow |
|---|---|---|---|---|---|---|---|
| 1777909372 | 15.56° C | 44% | 1012.7 hPa | 0 mm | - | 888 W/m² | - |
| 1777909071 | 15.56° C | 44% | 1012.7 hPa | 0 mm | - | 884 W/m² | - |
| 1777908771 | 15° C | 44% | 1012.8 hPa | 0 mm | - | 875 W/m² | - |
| 1777908471 | 15° C | 43% | 1012.9 hPa | 0 mm | - | 868 W/m² | - |
| 1777908170 | 15° C | 43% | 1012.9 hPa | 0 mm | - | 856 W/m² | - |
| 1777907870 | 14.44° C | 42% | 1013.1 hPa | 0 mm | - | 851 W/m² | - |
| 1777907570 | 14.44° C | 44% | 1013.1 hPa | 0 mm | - | 840 W/m² | - |
| 1777907270 | 14.44° C | 42% | 1013.1 hPa | 0 mm | - | 837 W/m² | - |
| 1777906969 | 14.44° C | 44% | 1013 hPa | 0 mm | - | 826 W/m² | - |
| 1777906670 | 14.44° C | 43% | 1013 hPa | 0 mm | - | 816 W/m² | - |
| 1777906369 | 13.89° C | 43% | 1013 hPa | 0 mm | - | 803 W/m² | - |
| 1777906068 | 14.44° C | 43% | 1013.1 hPa | 0 mm | - | 798 W/m² | - |
| 1777905768 | 13.89° C | 42% | 1013.1 hPa | 0 mm | - | 788 W/m² | - |
| 1777905468 | 13.89° C | 43% | 1013 hPa | 0 mm | - | 779 W/m² | - |
| 1777905168 | 13.89° C | 45% | 1013.3 hPa | 0 mm | - | 780 W/m² | - |
| 1777904867 | 13.89° C | 44% | 1013.2 hPa | 0 mm | - | 789 W/m² | - |
| 1777904567 | 13.89° C | 43% | 1013.3 hPa | 0 mm | - | 765 W/m² | - |
| 1777904267 | 13.33° C | 44% | 1013.2 hPa | 0 mm | - | 800 W/m² | - |
| 1777903966 | 13.33° C | 44% | 1013.3 hPa | 0 mm | - | 742 W/m² | - |
| 1777903666 | 13.33° C | 44% | 1013.3 hPa | 0 mm | - | 719 W/m² | - |
| 1777903366 | 13.33° C | 45% | 1013.3 hPa | 0 mm | - | 705 W/m² | - |
| 1777903066 | 12.78° C | 47% | 1013.3 hPa | 0 mm | - | 687 W/m² | - |
| 1777902765 | 12.78° C | 46% | 1013.3 hPa | 0 mm | - | 679 W/m² | - |
| 1777902465 | 12.22° C | 48% | 1013.3 hPa | 0 mm | - | 686 W/m² | - |
| 1777902165 | 11.67° C | 49% | 1013.4 hPa | 0 mm | - | 396 W/m² | - |
* Rain latest hour (hover to see other rain measurements)
** Current wind speed in m/s (hover to see current wind gust speed)